Location: Clair
(33.8067°N, 117.9845°W)
Time: 17:10:52
(UTC+00:00)

Cosmos 2237 - Pass Details

Date: 14 February 2026
Orbit: 849 x 854 km, 70.8° (Epoch: 8 March)

Event Time Altitude Azimuth Distance (km) Brightness Sun altitude
Rises 12:58:48 0° 194° (SSW) 3,397 7.2 -21.0°
Reaches altitude 10° 13:01:14 10° 193° (SSW) 2,465 6.5 -20.5°
Maximum altitude 13:06:53 74° 109° (ESE) 883 4.4 -19.3°
Drops below altitude 10° 13:12:33 10° 25° (NNE) 2,477 6.9 -18.2°
Sets 13:15:01 0° 24° (NNE) 3,416 7.6 -17.7°
